This is the latest recevied weather packets stored in our database for station/object KC4MCQ-10. If no packets are shown the sender has not sent any weather packets the latest 10 day(s).
| Time | Temp. | Humidity | Pressure | Rain* | Wind** | Luminosity | Snow |
|---|---|---|---|---|---|---|---|
| 1787565784 | 23.33° C | 89% | 1016.4 hPa | 0 mm | 0 m/s | - | - |
| 1787565147 | 23.89° C | 88% | 1016.2 hPa | 0 mm | 0.89 m/s, 214° | - | - |
| 1787564546 | 23.89° C | 88% | 1016.2 hPa | 0 mm | 0 m/s | - | - |
| 1787563942 | 23.89° C | 88% | 1016.1 hPa | 0 mm | 0.45 m/s, 256° | - | - |
| 1787563335 | 23.89° C | 88% | 1016.1 hPa | 0 mm | 0 m/s | - | - |
| 1787562734 | 23.89° C | 88% | 1016.1 hPa | 0 mm | 0.45 m/s, 209° | - | - |
| 1787562120 | 23.89° C | 88% | 1015.9 hPa | 0 mm | 0.89 m/s, 205° | - | - |
| 1787561516 | 23.89° C | 88% | 1015.9 hPa | 0 mm | 0.45 m/s, 202° | - | - |
| 1787560909 | 24.44° C | 88% | 1016 hPa | 0 mm | 0.45 m/s, 180° | - | - |
| 1787560306 | 24.44° C | 88% | 1016 hPa | 0 mm | 0 m/s | - | - |
| 1787559704 | 24.44° C | 88% | 1016 hPa | 0 mm | 0.45 m/s, 173° | - | - |
| 1787559098 | 24.44° C | 88% | 1015.9 hPa | 0 mm | 0.45 m/s, 173° | - | - |
| 1787558497 | 24.44° C | 87% | 1015.8 hPa | 0 mm | 0.45 m/s, 173° | - | - |
| 1787557896 | 24.44° C | 87% | 1016 hPa | 0 mm | 0.45 m/s, 216° | - | - |
| 1787557295 | 24.44° C | 88% | 1016.1 hPa | 0 mm | 0.45 m/s, 226° | - | - |
| 1787556694 | 24.44° C | 88% | 1016 hPa | 0 mm | 0.89 m/s, 238° | - | - |
| 1787556090 | 24.44° C | 88% | 1016.1 hPa | 0 mm | 0.89 m/s, 193° | - | - |
| 1787555489 | 24.44° C | 88% | 1016.2 hPa | 0 mm | 0.89 m/s, 214° | - | - |
| 1787554888 | 24.44° C | 89% | 1016.1 hPa | 0 mm | 0.45 m/s, 227° | - | - |
| 1787554288 | 24.44° C | 88% | 1016.2 hPa | 0 mm | 0.89 m/s, 219° | - | - |
| 1787553687 | 24.44° C | 88% | 1016.1 hPa | 0 mm | 0.45 m/s, 259° | - | - |
| 1787553087 | 24.44° C | 88% | 1016 hPa | 0 mm | 0 m/s | - | - |
| 1787552486 | 24.44° C | 89% | 1016.2 hPa | 0 mm | 0 m/s | - | - |
| 1787551886 | 24.44° C | 89% | 1016.4 hPa | 0 mm | 0.89 m/s, 302° | - | - |
| 1787551285 | 24.44° C | 90% | 1016.4 hPa | 0 mm | 0.45 m/s, 253° | - | - |
* Rain latest 24 hours (hover to see other rain measurements)
** Current wind speed in m/s (hover to see current wind gust speed)